Wind_Speed
40 41 42 42 43 44 45 45 46 46 45 45 45 45 45 46 46 47 48 49 50 52 53 54 54 55 55 55 56 56 57 57 57 58 59 59 59 59 59 60 61 63 63
41 41 41 42 43 43 44 44 44 44 44 44 44 44 45 46 47 47 48 49 50 52 53 53 54 54 55 55 56 56 56 57 57 57 57 58 59 59 59 59 60 61 62
40 40 40 41 42 43 43 44 44 44 44 44 44 45 46 47 47 48 49 50 51 52 53 53 53 53 54 55 55 55 55 56 56 56 56 57 58 59 60 60 59 60 61
39 40 41 41 42 43 43 43 44 44 45 45 45 45 47 47 48 49 49 51 51 51 52 52 52 52 53 53 54 54 53 54 54 54 55 55 56 58 59 60 60 60 60
39 40 40 41 41 42 43 43 43 44 44 45 45 46 47 48 49 49 50 50 50 50 50 50 51 51 52 52 52 52 53 53 53 54 54 54 55 56 57 59 60 60 60
39 40 41 41 41 42 43 43 43 43 44 45 46 46 47 48 49 49 50 49 49 48 48 49 50 51 52 52 52 52 53 53 53 53 54 54 54 55 56 57 58 60 60
40 41 41 41 41 41 42 42 42 43 44 45 46 47 48 49 49 49 49 49 48 48 48 49 49 50 51 52 52 53 54 54 53 53 53 53 54 54 55 56 57 59 59
40 41 41 41 40 41 41 41 42 43 44 45 46 48 48 48 48 48 48 48 48 48 49 49 49 50 50 51 52 52 53 53 53 53 53 54 54 53 54 55 55 56 56
40 41 40 40 40 41 42 43 43 44 45 46 46 46 46 47 47 47 47 47 48 49 49 49 48 49 49 50 51 51 51 52 52 53 53 53 53 54 54 54 54 54 54
40 40 41 41 42 42 43 44 44 44 45 45 45 45 46 46 46 46 46 47 48 48 48 48 48 48 49 50 50 50 50 50 51 52 52 51 51 52 54 54 54 54 53
41 41 42 43 43 44 44 45 45 45 44 44 44 45 45 45 46 46 46 46 46 47 47 47 48 48 48 48 48 48 49 49 49 50 50 50 51 51 52 53 53 53 53
41 42 43 43 44 44 45 45 45 45 45 44 44 44 44 45 45 45 45 46 46 45 45 46 47 47 48 48 47 47 48 49 49 49 49 50 50 50 50 51 52 52 51
42 43 43 44 44 44 44 44 44 44 44 44 45 45 45 45 45 45 45 45 46 45 46 46 47 47 47 47 47 46 46 47 48 48 48 49 49 49 48 49 49 49 48
42 43 43 43 44 44 44 43 43 43 43 44 44 44 44 44 45 45 45 45 45 46 46 47 47 47 47 46 46 46 46 46 46 47 47 47 47 46 46 46 46 46 46
41 41 41 41 42 42 42 42 42 42 43 43 43 43 43 43 43 44 44 44 44 45 45 45 45 45 46 46 46 46 46 46 46 46 45 45 45 44 43 43 43 43 43
39 39 40 40 40 41 41 41 41 41 42 42 42 42 42 42 42 43 43 43 43 43 44 44 44 44 44 44 44 44 45 45 45 44 44 44 43 43 42 41 41 40 40
39 39 39 39 39 40 40 40 40 41 41 41 41 41 41 41 41 41 41 42 42 42 42 42 42 42 42 42 42 43 43 42 42 42 42 42 42 41 41 40 40 39 39
38 39 39 39 39 39 40 40 40 40 40 40 41 41 41 41 41 40 40 41 41 41 41 40 41 41 41 41 41 41 40 40 40 40 40 40 40 40 40 40 40 39 38
38 38 38 38 39 39 39 39 40 40 40 40 40 40 40 39 39 39 39 39 40 40 40 40 40 40 40 40 40 39 39 39 39 39 38 38 38 38 38 38 38 39 38
37 37 37 38 39 40 40 40 40 39 39 39 39 39 39 38 38 38 39 39 39 39 39 39 39 39 39 39 39 38 38 39 38 38 37 37 36 36 36 36 36 37 37
36 36 37 38 39 39 39 39 39 39 39 39 39 38 38 38 38 38 38 38 38 38 38 38 38 38 37 37 36 36 36 36 36 36 36 35 35 35 35 35 35 35 36
36 36 37 37 38 38 38 38 38 38 38 38 38 38 37 37 37 37 37 37 37 37 37 36 36 35 35 35 34 35 35 35 34 34 33 33 33 33 33 33 33 34 34
35 35 36 37 37 37 37 37 37 37 37 36 36 36 36 36 36 36 36 36 36 35 35 35 34 34 33 33 33 33 33 33 32 31 31 31 31 31 32 32 32 32 32
34 35 35 35 36 36 35 35 35 35 35 35 35 35 35 35 35 35 35 34 34 34 33 33 33 33 32 32 32 32 31 31 30 30 29 29 29 29 30 30 31 31 31
34 34 34 35 34 34 34 33 33 33 33 33 33 33 34 34 34 33 33 33 32 32 32 32 32 32 31 31 31 30 30 29 28 28 27 27 28 29 29 30 30 29 29
34 34 34 34 34 33 33 32 32 32 32 32 32 32 32 32 32 32 32 31 31 31 31 31 31 31 30 30 29 29 28 27 27 27 27 27 27 27 28 28 28 28 27
Wind_Direction
269 270 271 272 272 273 273 273 272 273 272 271 271 271 271 271 271 271 271 271 271 271 271 271 271 271 271 271 271 271 271 270 270 270 268 267 267 266 265 266 266 264 263
269 271 271 273 274 274 274 274 274 274 273 273 273 273 273 273 273 273 273 273 273 273 272 272 272 272 272 272 272 272 272 272 271 270 269 268 268 268 267 267 266 265 264
270 271 273 274 275 276 276 275 275 275 275 275 275 275 274 274 275 275 275 275 275 274 273 273 272 273 273 273 272 273 271 271 271 270 269 269 269 269 268 268 267 266 265
271 273 275 275 275 276 276 276 276 276 276 275 275 276 276 276 276 277 277 277 276 275 274 274 273 273 273 273 273 273 272 272 271 270 270 270 270 269 269 268 268 267 266
273 274 275 275 276 276 276 276 276 277 276 276 277 277 278 278 278 278 278 278 277 276 275 274 274 273 274 274 275 274 272 272 271 270 270 270 269 269 269 269 269 267 267
274 275 275 276 276 276 276 277 277 277 277 277 278 279 279 279 279 279 278 277 277 276 276 276 275 275 275 274 275 274 273 273 271 270 270 270 270 271 270 270 270 269 268
274 275 276 276 276 276 277 277 277 278 279 280 280 280 280 280 280 279 278 277 276 276 277 277 277 276 276 275 275 274 273 272 272 271 271 271 271 271 271 271 271 270 270
276 276 276 277 277 278 278 278 278 279 280 280 281 281 281 281 280 279 277 276 276 277 278 278 278 278 278 277 276 275 273 273 272 272 272 272 272 272 272 272 272 271 270
278 277 277 277 277 278 278 278 279 280 280 280 281 281 281 280 279 278 277 276 277 278 278 279 279 279 279 278 277 276 274 273 273 273 272 273 273 272 272 272 271 272 271
279 279 278 278 278 278 279 280 281 281 281 281 282 282 281 280 279 278 277 277 277 278 278 278 279 280 281 280 279 277 275 274 273 273 272 272 273 272 272 272 272 272 271
280 280 280 280 280 280 281 281 281 281 281 282 283 283 282 281 280 279 277 277 277 278 278 279 280 281 281 281 280 279 276 274 274 273 272 273 274 274 273 273 273 273 272
281 281 281 281 281 281 281 281 281 281 281 282 283 283 283 282 280 278 278 278 278 278 279 280 281 282 281 281 281 280 279 277 275 275 275 275 275 275 274 274 274 274 273
282 282 282 281 281 282 282 281 281 281 281 282 283 283 283 282 281 279 279 279 279 279 279 280 281 282 282 282 282 281 280 279 277 276 276 276 275 275 275 274 274 273 272
284 283 282 282 282 282 282 282 281 281 282 283 283 283 282 282 281 280 279 279 279 279 280 280 280 281 281 282 282 281 281 280 278 277 276 276 275 274 274 274 273 272 271
285 284 283 283 283 283 282 282 282 282 282 283 282 282 282 282 281 280 280 280 280 281 281 281 281 281 281 282 281 281 281 280 279 277 276 275 275 274 274 273 272 271 271
286 285 284 284 283 283 283 283 282 282 283 283 283 283 282 282 281 280 280 281 282 282 282 281 282 282 282 282 282 281 281 281 279 277 276 274 274 273 273 273 272 271 271
286 285 284 284 284 283 283 283 283 283 283 283 283 283 283 283 283 282 281 282 282 282 282 283 283 283 283 283 283 282 282 281 279 278 277 275 273 272 272 272 272 272 271
286 286 285 285 284 284 283 283 283 283 283 283 283 283 284 284 284 284 283 283 283 284 283 284 284 284 284 284 284 284 283 282 281 279 277 275 273 272 271 272 272 272 271
287 286 285 285 285 285 284 284 284 284 284 284 284 284 285 285 285 285 284 283 283 284 283 284 284 284 284 285 284 284 283 282 282 281 279 276 273 272 272 271 272 272 271
288 287 286 285 285 285 284 284 284 284 284 283 284 284 285 285 285 285 284 283 283 284 284 284 284 284 285 285 284 284 283 283 282 281 279 276 274 273 272 272 273 273 272
289 289 288 287 287 287 286 285 285 284 284 283 283 284 284 284 285 285 285 284 284 284 284 285 285 286 286 285 285 284 284 284 283 281 279 276 273 272 272 272 272 273 272
291 290 290 290 289 289 288 287 286 285 284 284 284 284 285 285 285 285 285 285 285 285 286 286 286 286 286 285 285 285 285 285 283 281 278 275 273 272 272 272 272 272 272
292 292 293 292 291 291 289 288 287 286 285 284 284 285 285 286 285 285 285 284 284 284 285 285 285 286 286 286 286 286 286 284 283 281 278 276 273 272 272 273 272 271 271
294 295 295 295 294 292 291 290 289 288 286 285 285 285 285 286 286 286 286 285 284 284 284 285 285 285 285 286 287 287 286 284 282 280 279 277 274 273 273 274 274 272 271
295 296 296 296 295 294 293 291 290 289 288 287 287 287 286 287 287 286 286 286 285 284 284 285 285 285 285 286 287 287 286 284 281 280 279 277 276 275 275 276 276 274 271
296 297 297 296 296 295 293 292 291 290 289 289 288 288 288 288 288 287 286 286 285 285 285 284 284 285 285 285 286 286 285 283 282 281 280 279 278 278 277 277 276 275 272
Height
5616 5615 5614 5613 5612 5610 5608 5607 5606 5605 5604 5602 5602 5601 5600 5599 5598 5598 5597 5596 5595 5594 5593 5592 5590 5589 5588 5587 5585 5584 5583 5582 5583 5583 5582 5581 5580 5580 5581 5581 5581 5582 5583
5604 5604 5602 5601 5600 5598 5596 5595 5593 5592 5591 5590 5589 5588 5587 5586 5585 5584 5583 5582 5581 5579 5578 5576 5575 5573 5572 5571 5569 5568 5566 5566 5565 5566 5565 5564 5563 5563 5563 5564 5564 5564 5565
5593 5592 5591 5590 5588 5586 5585 5583 5581 5580 5579 5578 5577 5576 5574 5573 5572 5571 5569 5568 5566 5564 5562 5561 5559 5558 5556 5554 5553 5552 5550 5549 5548 5549 5548 5547 5547 5546 5546 5546 5546 5546 5547
5582 5581 5579 5578 5576 5574 5573 5571 5570 5568 5567 5566 5564 5563 5561 5560 5558 5557 5555 5553 5551 5549 5547 5546 5544 5542 5541 5539 5538 5536 5535 5534 5533 5532 5532 5531 5530 5529 5528 5529 5529 5529 5529
5571 5570 5568 5566 5565 5563 5561 5560 5558 5557 5555 5553 5552 5550 5548 5547 5545 5543 5541 5539 5537 5535 5533 5531 5529 5528 5526 5524 5523 5521 5519 5518 5517 5517 5516 5516 5515 5513 5512 5512 5512 5512 5511
5560 5558 5556 5555 5553 5552 5550 5548 5547 5545 5543 5541 5539 5537 5535 5533 5531 5529 5527 5525 5523 5521 5519 5517 5515 5513 5512 5510 5508 5506 5504 5503 5502 5501 5501 5500 5499 5497 5496 5495 5494 5495 5496
5548 5547 5545 5543 5542 5540 5538 5536 5535 5533 5531 5528 5526 5524 5522 5519 5517 5515 5512 5511 5509 5507 5505 5503 5501 5499 5497 5495 5493 5491 5489 5487 5486 5486 5485 5484 5483 5482 5481 5480 5477 5476 5477
5537 5535 5533 5532 5530 5528 5526 5524 5522 5520 5518 5515 5513 5510 5508 5505 5503 5501 5499 5497 5495 5493 5491 5489 5487 5484 5482 5480 5478 5476 5474 5473 5471 5470 5470 5468 5466 5464 5463 5462 5460 5460 5459
5525 5523 5522 5520 5518 5516 5514 5512 5510 5507 5505 5502 5500 5497 5494 5492 5489 5487 5485 5484 5482 5480 5477 5475 5473 5470 5468 5465 5464 5462 5460 5458 5456 5454 5453 5451 5450 5448 5446 5445 5444 5443 5443
5513 5511 5510 5508 5506 5504 5502 5499 5497 5494 5491 5489 5486 5484 5481 5479 5476 5474 5472 5470 5469 5466 5464 5461 5459 5456 5453 5450 5448 5447 5445 5443 5441 5439 5438 5436 5434 5433 5430 5429 5428 5427 5426
5501 5499 5497 5495 5493 5491 5489 5486 5484 5481 5479 5476 5474 5471 5468 5465 5463 5461 5458 5456 5454 5452 5450 5447 5445 5442 5439 5436 5434 5432 5430 5428 5426 5424 5422 5421 5419 5418 5416 5414 5412 5410 5410
5489 5487 5485 5482 5480 5478 5475 5473 5470 5468 5466 5463 5460 5458 5455 5452 5450 5447 5445 5442 5440 5438 5436 5433 5431 5428 5425 5422 5419 5417 5415 5412 5411 5409 5408 5406 5404 5403 5401 5399 5397 5395 5394
5476 5474 5471 5469 5466 5464 5462 5459 5457 5455 5452 5450 5447 5444 5442 5439 5436 5434 5431 5429 5426 5424 5422 5419 5416 5413 5410 5408 5405 5403 5400 5398 5396 5395 5393 5391 5390 5388 5386 5384 5383 5381 5380
5464 5461 5458 5456 5453 5451 5448 5446 5444 5442 5439 5436 5434 5431 5428 5426 5423 5420 5418 5415 5412 5410 5408 5405 5402 5399 5396 5394 5391 5389 5386 5384 5382 5380 5379 5377 5375 5373 5371 5370 5368 5367 5366
5451 5448 5445 5443 5440 5438 5435 5433 5431 5428 5426 5423 5421 5418 5416 5413 5410 5407 5404 5402 5399 5396 5394 5391 5389 5386 5383 5380 5378 5375 5372 5370 5368 5366 5364 5363 5361 5359 5358 5356 5355 5354 5353
5439 5436 5433 5431 5428 5425 5423 5420 5418 5416 5413 5410 5407 5405 5402 5400 5397 5394 5391 5388 5385 5383 5380 5378 5375 5373 5370 5367 5364 5361 5359 5356 5354 5352 5350 5349 5347 5346 5345 5343 5342 5341 5340
5427 5424 5421 5418 5416 5413 5410 5408 5405 5403 5400 5397 5394 5392 5389 5387 5384 5381 5378 5375 5373 5370 5367 5365 5362 5360 5357 5354 5351 5349 5346 5343 5341 5339 5337 5335 5334 5333 5332 5331 5330 5329 5328
5415 5412 5409 5406 5403 5401 5398 5395 5393 5390 5388 5385 5382 5379 5376 5374 5371 5368 5365 5363 5360 5357 5355 5352 5350 5347 5344 5342 5339 5336 5333 5331 5328 5326 5324 5323 5321 5320 5320 5319 5318 5317 5317
5403 5400 5397 5394 5391 5388 5386 5383 5380 5377 5375 5372 5369 5367 5364 5361 5358 5355 5353 5350 5348 5345 5342 5340 5337 5335 5332 5329 5326 5324 5321 5319 5316 5314 5312 5311 5309 5308 5308 5307 5306 5305 5305
5391 5388 5385 5382 5379 5376 5373 5370 5367 5364 5362 5359 5357 5354 5351 5348 5346 5343 5340 5337 5335 5333 5330 5328 5325 5322 5320 5317 5314 5312 5309 5307 5304 5302 5300 5299 5298 5297 5296 5295 5294 5294 5293
5379 5376 5373 5369 5366 5363 5359 5357 5354 5351 5349 5346 5344 5341 5339 5336 5333 5330 5328 5325 5323 5320 5318 5315 5313 5310 5307 5305 5302 5300 5297 5295 5292 5290 5289 5287 5286 5285 5285 5284 5283 5282 5282
5368 5365 5361 5357 5354 5350 5347 5344 5341 5338 5336 5333 5331 5328 5326 5323 5321 5318 5315 5313 5310 5308 5306 5303 5301 5298 5296 5293 5291 5289 5286 5284 5281 5279 5278 5276 5275 5274 5274 5273 5272 5272 5271
5357 5353 5349 5345 5341 5338 5334 5331 5328 5326 5323 5320 5318 5316 5313 5311 5308 5306 5303 5301 5298 5296 5294 5292 5290 5287 5285 5283 5280 5278 5276 5273 5271 5269 5267 5266 5265 5264 5263 5263 5262 5261 5260
5346 5342 5338 5334 5330 5326 5323 5319 5316 5313 5311 5308 5306 5303 5301 5299 5296 5294 5291 5289 5286 5284 5282 5280 5278 5277 5274 5272 5270 5268 5265 5263 5261 5259 5258 5256 5255 5254 5253 5252 5252 5251 5250
5335 5331 5327 5323 5319 5315 5311 5308 5305 5302 5299 5297 5294 5292 5289 5287 5284 5282 5279 5277 5275 5273 5271 5269 5268 5266 5264 5262 5260 5258 5255 5253 5251 5250 5248 5247 5246 5245 5244 5243 5242 5241 5240
5324 5320 5316 5312 5308 5304 5300 5297 5294 5291 5288 5285 5283 5280 5278 5275 5273 5271 5269 5266 5264 5262 5261 5259 5257 5256 5254 5252 5250 5248 5246 5244 5242 5241 5239 5238 5237 5236 5235 5234 5233 5232 5231